Regional Weather Roundup
Issued by NWS

Home | Current Version | Previous Version | Text Only | Print | Product List | Glossary Off
Versions: 1 2 3 4 5 6 7 8 9 10 11 12 13 14 15 16 17 18 19 20 21 22 23 24 25 26 27 28 29 30 31 32 33 34 35 36 37 38 39 40 41 42 43 44 45 46 47 48 49 50

000
ASUS43 KMPX 050310
RWRMN
WEATHER ROUNDUP FOR MINNESOTA
NATIONAL WEATHER SERVICE TWIN CITIES/CHANHASSEN MN
900 PM CST WED MAR 04 2015


NOTE: "FAIR" INDICATES FEW OR NO CLOUDS BELOW 12,000 FEET WITH NO
SIGNIFICANT WEATHER AND/OR OBSTRUCTIONS TO VISIBILITY. N/A MEANS
CURRENT SKY AND/OR WEATHER CONDITIONS ARE NOT AVAILABLE.

MNZ060>063-068>070-050400-
   Twin Cities Metro

CITY           SKY/WX    TMP DP  RH WIND       PRES   REMARKS
TWIN CITIES    CLEAR      1 -13  51 NW9       30.39R WCI -14
ST PAUL        CLEAR      2 -11  54 NW13      30.40R WCI -15
CRYSTAL        CLEAR      1 -13  51 NW8       30.37R WCI -13
BLAINE         CLEAR      1 -11  55 NW10G16   30.34S WCI -14
LAKEVILLE      CLEAR     -2  -9  71 W6        30.37R WCI -14
EDEN PRAIRIE   CLEAR      0 -11  59 W7        30.38R WCI -13
SOUTH ST PAUL  CLEAR      3 -12  49 NW12      30.39R WCI -13
LAKE ELMO      FAIR       1  -9  60 W6        30.37R WCI -10
$$
MNZ001>005-007-008-013>017-022>024-027-028-050400-
   Northwest Minnesota

CITY           SKY/WX    TMP DP  RH WIND       PRES   REMARKS
BEMIDJI        CLEAR     -9 -15  75 W6        30.29S WCI -23
HALLOCK        CLEAR     -8 -13  77 W7        30.36S WCI -22
ROSEAU         CLEAR     -6 -13  71 W6        30.32R WCI -18
WARROAD        CLEAR     -8 -15  71 W8        30.30S WCI -23
THIEF RVR FALL CLEAR     -8 -11  84 W6        30.33S WCI -21
CROOKSTON      CLEAR     -8 -13  77 NW6       30.39S WCI -21
FOSSTON        CLEAR    -11 -17  77 W3        30.33R
DETROIT LAKES  LGT SNOW  -4  -8  84 NW5       30.34R WCI -15
MOORHEAD       CLEAR      0  -8  71 NW9       30.40R WCI -16
PARK RAPIDS    CLEAR     -8 -14  74 NW5       30.29R WCI -19
MAHNOMEN       FAIR      -7 -12  78 W3        30.33S
$$
MNZ006-009>011-018-025>026-050400-
   North Central Minnesota

CITY           SKY/WX    TMP DP  RH WIND       PRES   REMARKS
BAUDETTE       CLEAR     -8 -16  67 W8        30.27R WCI -24
FLAG ISLAND    CLEAR     -6 -15  65 W9        30.28R WCI -22
INTL FALLS     CLEAR     -7 -16  65 W7        30.26R WCI -21
WASKISH        CLEAR     -8 -13  77 W6        30.30R WCI -21
BIG FORK       CLEAR     -8 -15  71 CALM      30.27R
LONGVILLE      CLEAR    -11 -17  77 W3        30.30S
GRAND RAPIDS   CLEAR     -6 -15  65 W8        30.25S WCI -21
CRANE LAKE     CLEAR    -17 -22  76 CALM      30.28R
ORR            CLEAR    -11 -18  70 CALM      30.22R
COOK           CLEAR    -15 -20  76 CALM      30.26R
WALKER         FAIR      -9 -17  70 W3        30.29S
$$
MNZ012-019>021-037-050400-
   Northeast Minnesota

CITY           SKY/WX    TMP DP  RH WIND       PRES   REMARKS
DULUTH         FAIR      -4 -16  56 NW9       30.23R WCI -20
ELY            CLEAR     -8 -17  65 NW6       30.22R WCI -21
HIBBING        FAIR      -6 -16  61 W7        30.25R WCI -20
EVELETH        CLEAR     -4 -11  71 W5        30.25R WCI -15
DULUTH HARBOR  CLEAR      0 -11  60 W8        30.34S WCI -15
TWO HARBORS    CLEAR     -2 -13  60 W3        30.24S
SILVER BAY     CLEAR     -6 -15  65 CALM      30.23R
GRAND MARAIS     N/A      1 -11  57 VRB3      30.26R
G MARAIS ARPRT PTCLDY    -8 -18  59 NW8       30.13R WCI -23
$$
MNZ029>031-032-039>041-046>048-054>057-064-050400-
   West Central Minnesota

CITY           SKY/WX    TMP DP  RH WIND       PRES   REMARKS
FERGUS FALLS   CLEAR     -4 -11  71 NW6       30.41R WCI -16
WHEATON        CLEAR     -6 -11  77 W6        30.42R WCI -18
MORRIS         CLEAR     -8 -13  77 W8        30.38R WCI -23
ALEXANDRIA     FAIR      -8 -13  78 NW6       30.33R WCI -21
ELBOW LAKE     FAIR      -6 -11  80 NW5       30.36R WCI -17
WADENA         CLEAR     -8 -11  84 NW5       30.32R WCI -19
GLENWOOD       CLEAR     -8 -11  84 W7        30.35R WCI -22
APPLETON       CLEAR     -9 -15  77 W7        30.41R WCI -24
BENSON         CLEAR     -8 -15  71 NW7       30.38R WCI -22
ORTONVILLE     CLEAR     -2 -11  65 NW7       30.40R WCI -16
MADISON        CLEAR     -6 -13  71 W8        30.42R WCI -21
WILLMAR        FAIR       0  -9  65 NW8       30.38R WCI -15
$$
MNZ033>034-036-042>043-049>051-058-059-050400-
   Central Minnesota

CITY           SKY/WX    TMP DP  RH WIND       PRES   REMARKS
ST CLOUD       CLEAR     -3 -13  62 W8        30.35R WCI -18
SAUK CENTRE    FAIR     -10 -15  78 W3        30.34R
PAYNESVILLE    CLEAR    -12 -16  82 SW6       30.36S WCI -26
AITKIN         CLEAR     -4 -15  59 NW3       30.30R
PINE RIVER     CLEAR     -6 -15  65 NW5       30.33R WCI -17
BRAINERD       CLEAR     -5 -15  62 NW7       30.32R WCI -19
STAPLES        FAIR      -9 -17  70 W3        30.32R
LONG PRAIRIE   FAIR      -6 -13  71 W3        30.33R
LITTLE FALLS   CLEAR     -8 -15  71 CALM      30.35R
LITCHFIELD     CLEAR     -2  -9  71 CALM      30.38R
BUFFALO        CLEAR     -3 -12  63 W5        30.38R WCI -13
MAPLE LAKE     CLEAR     -3 -11  67 W3        30.37S
$$
MNZ037-044-045-052-053-050400-
   East Central Minnesota

CITY           SKY/WX    TMP DP  RH WIND       PRES   REMARKS
PRINCETON      CLEAR     -2 -13  60 W3        30.35R
MORA           CLEAR     -6 -17  59 NW3       30.35R
CAMBRIDGE      CLEAR      0 -11  60 W5        30.34R WCI -10
RUSH CITY      MOCLDY    -6 -15  63 CALM      30.35R
MOOSE LAKE     CLEAR     -2 -15  55 CALM      30.29R
HINCKLEY       FAIR      -2 -15  55 W3        30.33R
CLOQUET        FAIR      -4 -17  54 W8        30.26R WCI -19
MCGREGOR       CLEAR     -2 -13  60 NW6       30.30R WCI -14
$$
MNZ071>073-080-081-089-090-097-098-050400-
   Southwest Minnesota

CITY           SKY/WX    TMP DP  RH WIND       PRES   REMARKS
MONTEVIDEO     CLEAR     -4  -9  77 NW3       30.42R
GRANITE FALLS  CLEAR     -4  -8  81 W8        30.43R WCI -19
CANBY          CLEAR     -4 -11  73 W6        30.42R WCI -17
MARSHALL       CLEAR     -4 -11  71 NW7       30.41R WCI -18
REDWOOD FALLS  CLEAR     -2  -9  72 NW7       30.41R WCI -15
OLIVIA         CLEAR      0  -8  71 NW5       30.40R WCI -10
PIPESTONE      CLEAR     -2  -9  71 N6        30.36R WCI -14
WINDOM         CLEAR     -2  -9  71 CALM      30.39R
WORTHINGTON    CLEAR     -2  -8  78 NW5       30.41R WCI -12
JACKSON        CLEAR      1  -8  66 NW6       30.40R WCI -10
TRACY          CLEAR     -2  -9  70 W3        30.40R
SLAYTON        CLEAR     -6 -13  70 CALM      30.38R
$$
MNZ065>067-074>077-082>085-091>093-050400-
   South Central Minnesota

CITY           SKY/WX    TMP DP  RH WIND       PRES   REMARKS
MANKATO        CLEAR      1  -9  60 W7        30.41R WCI -11
NEW ULM        CLEAR     -2  -9  71 W7        30.42R WCI -16
ST JAMES       CLEAR      0  -8  71 W5        30.44R WCI -10
FAIRMONT       CLEAR      1  -8  66 NW6       30.41R WCI -10
GLENCOE        CLEAR     -1  -9  67 W6        30.39R WCI -13
FARIBAULT      CLEAR      0  -9  65 W7        30.39R WCI -13
OWATONNA       CLEAR     -2  -9  71 W7        30.39R WCI -16
WASECA         CLEAR      0  -8  71 W9        30.40R WCI -16
ALBERT LEA     CLEAR      1  -8  66 NW6       30.39R WCI -10
$$
MNZ078>079-086>088-094>096-050400-
   Southeast Minnesota

CITY           SKY/WX    TMP DP  RH WIND       PRES   REMARKS
ROCHESTER      CLEAR      0  -9  65 NW12      30.34R WCI -17
RED WING       CLEAR      3 -11  51 NW5       30.39R WCI  -6
STANTON        CLEAR      2  -9  62 W6        30.38R WCI -10
DODGE CENTER   PTCLDY     1  -8  66 W9        30.35R WCI -14
WINONA         PTCLDY    10  -4  52 NW7       30.38S WCI   0
AUSTIN         CLEAR      1  -6  71 NW12      30.37R WCI -15
PRESTON        CLEAR      1  -6  70 NW13      30.34R WCI -17
$$
ABBREVIATIONS USED IN REMARKS
   TC - TEMPERATURES IN CELSIUS
  WCI - WIND CHILL INDEX
   HX - HEAT INDEX
  VSB - VISIBILITY
$$


USA.gov is the U.S. government's official web portal to all federal, state and local government web resources and services.